Preview of NWS' New Version of Forecast
This preview is not operational and should not be used for support decisions.
Latest weather observations around

Monroe Regional Airport (KMLU)

Using English Units (Switch to International System of Units)
Date/ Time (CST) Wind (mph) Vis. (mi) Weather Sky Cond. Temp (°F) Rel. Humidity Wind Chill (°F) Heat Index (°F) Pressure Precip. (in)
Air Dwpt 6 hour Altimeter (inHg) Sea level (inHg) 1 hr 3 hr 6 hr
Max Min
Feb 25 09:22 3 10 Mostly Cloudy BKN022 55 51     86%     30.14        
Feb 25 08:53 ESE 3 10 Clear CLR 54 51     90%     30.13 30.12      
Feb 25 07:53 ENE 5 10 Mostly Cloudy BKN070 54 51     90%     30.11 30.11      
Feb 25 06:53 E 3 10 Mostly Clear FEW070 54 51     90%     30.1 30.09      
Feb 25 05:53 Calm 10 Mostly Cloudy BKN065 54 51     90%     30.09 30.09     1
Feb 25 05:22 Calm 10 Mostly Cloudy FEW007 SCT013 BKN110 54 52     93%     30.07        
Feb 25 05:14 SE 5 10 Mostly Cloudy SCT006 BKN013 BKN070 54 52     93%     30.05        
Feb 25 04:53 5 10 Cloudy BKN006 OVC060 54 53     97%     30.07 30.06      
Feb 25 04:28 E 6 10 Cloudy BKN005 BKN060 OVC110 55 53     93%     30.06        
Notice The following observation data may not be complete
Feb 25 04:07   10 Cloudy FEW004 BKN060 OVC110          %              
Feb 25 03:53 SE 3 10 Cloudy OVC060 55 54     96%     30.06 30.06      
Feb 25 02:53 Calm 10 Cloudy BKN060 BKN080 OVC120 54 53     97%     30.04 30.03 0 1  
Feb 25 01:53 ENE 3 10 Light Rain BKN055 BKN070 OVC110 54 52     93%     30.03 30.03 0    
Feb 25 00:53 E 3 5 Rain and Fog/Mist SCT047 OVC080 53 52     96%     30.02 30.02 1    
Feb 25 00:40 NNW 3 3 Rain and Fog/Mist BKN043 OVC070 53 52     96%     30.04   1    
Feb 25 00:27 Calm 1.75 Heavy Rain and Fog/Mist BKN037 OVC047 54 53     97%     30.04   0    
Feb 25 00:25 WNW 6 3 Heavy Rain and Fog/Mist BKN037 OVC047 54 52     93%     30.04   0    
Feb 25 00:07 NNE 5 1.75 Heavy Rain and Fog/Mist SCT030 BKN046 OVC075 53 53     100%     30.02   0    
Feb 24 23:53 NNE 8 4 Heavy Rain and Fog/Mist FEW043 BKN049 OVC075 54 52     93%     30.01 30 0   1
Feb 24 23:26 NW 6 3 Heavy Rain and Fog/Mist FEW021 BKN040 OVC050 54 53     97%     30.01   0    
Feb 24 23:11 NNW 11 4 Thunderstorms and Rain and Fog/Mist FEW022 OVC045 54 53     97%     30   0    
Feb 24 22:53 NNW 14 4 Rain and Fog/Mist FEW029 SCT035 OVC044 55 53     93%     30 30 0    
Feb 24 22:41 NNW 14 4 Heavy Rain and Fog/Mist FEW011 BKN031 OVC042 55 53     93%     29.98   0    
Feb 24 22:19   5 Rain and Fog/Mist FEW008 BKN016 OVC023 57 56     96%     29.97   0    
Feb 24 22:08   4 Rain and Fog/Mist and Squalls FEW013 BKN017 OVC023 59 55     87%     29.98   0    
Feb 24 21:58 NW 15 10 Light Rain BKN017 OVC055 61 56     83%     29.93   0    
Feb 24 21:53   10 Cloudy SCT015 OVC060 63 57     81%     29.95 29.94 0    
Feb 24 20:53 SSW 9 10 Light Rain BKN070 BKN090 OVC120 71 67     87%   72 29.91 29.91 0 0  
Feb 24 19:53 SSW 11 9 Light Rain BKN110 71 67     87%   72 29.89 29.88 0    
Feb 24 18:53 SSW 13 10 Mostly Cloudy FEW085 BKN120 74 65     74%   74 29.88 29.88      
Feb 24 17:53 S 17 10 Clear CLR 76 65     69%   76 29.84 29.84 0   0
Feb 24 16:53 S 14 10 Mostly Clear FEW120 77 65     66%   78 29.83 29.83      
Feb 24 15:53 SSW 13 10 Partly Cloudy SCT100 78 66     67%   79 29.84 29.83      
Feb 24 14:53 SSW 16 10 Mostly Cloudy FEW046 SCT075 BKN090 78 65     64%   79 29.87 29.86      
Feb 24 13:53 S 13 10 Partly Cloudy SCT075 SCT090 78 65     64%   79 29.87 29.86      
Feb 24 12:53 S 22 10 Clear and Windy CLR 79 67     67%   80 29.9 29.89      
Feb 24 11:53 S 16 10 Mostly Cloudy BKN037 78 66     67%   79 29.92 29.92     0
Feb 24 10:53 S 17 10 Cloudy BKN027 BKN037 OVC100 76 67     74%   77 29.96 29.96      
Feb 24 09:53 S 9 10 Mostly Cloudy BKN017 74 68     82%   75 29.99 29.98      
Feb 24 09:28 S 15 10 Mostly Cloudy BKN017 73 68     84%   74 29.99        
Feb 24 08:53 S 8 6 Fog/Mist OVC014 72 69     91%   73 30.01 30   0  
Feb 24 07:53 SSE 6 6 Fog/Mist SCT010 BKN016 OVC021 70 68     93%     30.02 30.02 0    
Feb 24 06:53 SSE 6 3 Light Rain and Fog/Mist BKN016 BKN022 OVC049 69 68     96%     30.02 30.02 0    
Feb 24 06:09 SE 3 5 Light Rain and Fog/Mist BKN016 BKN029 OVC042 68 67     96%     30.03   0    
Feb 24 05:53 Calm 4 Light Rain and Fog/Mist BKN013 OVC027 68 67     96%     30.03 30.02 0   0
Feb 24 05:39 SSE 3 6 Light Rain and Fog/Mist BKN014 OVC019 68 67     96%     30.02   0    
Feb 24 05:31 Calm 6 Light Rain and Fog/Mist FEW009 BKN015 OVC027 68 67     96%     30.02   0    
Feb 24 04:53 SSW 5 8 Cloudy OVC010 69 67     93%     30.03 30.02      
Feb 24 03:53 S 7 9 Cloudy OVC012 69 67     93%     30.03 30.02      
Feb 24 03:34 S 7 9 Cloudy OVC012 69 67     93%     30.03        
Feb 24 02:53 S 5 9 Cloudy BKN009 OVC027 68 67     96%     30.03 30.03      
Feb 24 01:53 S 9 10 Cloudy OVC007 68 67     96%     30.05 30.04      
Feb 24 00:53 SSE 7 10 Cloudy OVC006 68 67     96%     30.07 30.06      
Feb 24 00:11 SSE 6 10 Mostly Cloudy BKN007 BKN055 68 67     96%     30.07        
Feb 23 23:53 SSE 7 10 Mostly Cloudy SCT007 BKN021 BKN055 68 67     96%     30.07 30.07      
Feb 23 23:50 SSE 7 10 Mostly Cloudy FEW007 BKN021 BKN055 68 66     94%     30.07        
Feb 23 23:33 SSE 7 10 Mostly Cloudy BKN022 BKN028 68 67     96%     30.08        
Feb 23 23:00 SSE 7 10 Partly Cloudy SCT006 68 66     93%     30.08        
Feb 23 22:53 SSE 8 10 Mostly Cloudy BKN006 68 66     93%     30.08 30.08      
Feb 23 22:03 SSE 5 10 Mostly Cloudy BKN007 67 66     97%     30.1        
Feb 23 21:53 5 10 Partly Cloudy SCT008 67 66     97%     30.1 30.1      
Feb 23 21:24 SE 6 10 Partly Cloudy SCT009 68 66     93%     30.11        
Feb 23 21:00 3 10 Mostly Cloudy BKN009 68 66     93%     30.11        
Feb 23 20:53 ESE 6 10 Mostly Cloudy BKN011 68 66     93%     30.11 30.11      
Feb 23 19:53 ESE 5 10 Mostly Cloudy BKN070 69 66     90%     30.11 30.11      
Feb 23 18:53 5 10 Partly Cloudy SCT065 71 65     81%   72 30.12 30.11      
Feb 23 17:53 SE 3 10 Clear CLR 72 64     76%   72 30.12 30.11     0
Feb 23 16:53 SE 9 10 Cloudy FEW031 BKN043 OVC080 74 66     76%   75 30.12 30.11 0    
Feb 23 15:53 ENE 7 10 Cloudy FEW039 OVC080 76 68     76%   77 30.12 30.11      
Feb 23 14:53 NE 7 10 Cloudy BKN035 OVC046 77 68     74%   78 30.14 30.13      
Feb 23 13:53 NE 5 10 Mostly Cloudy BKN033 BKN060 77 67     71%   78 30.15 30.15      
Feb 23 12:53 ENE 5 10 Mostly Cloudy BKN021 BKN031 76 67     74%   77 30.19 30.18      
Feb 23 12:01 Calm 6 Fog/Mist BKN017 BKN024 75 68     79%   76 30.22        
Feb 23 11:53 3 6 Fog/Mist CLR 75 68     79%   76 30.23 30.22      
Feb 23 11:11 Calm 6 Fog/Mist FEW019 SCT030 BKN047 72 66     82%   73 30.26        
Feb 23 10:53 NNW 5 6 Fog/Mist BKN017 BKN024 OVC030 68 64     87%     30.27 30.27      
Feb 23 10:00 NNW 7 6 Clear   67 65     93%     30.28        
Feb 23 09:53 NNW 7 2 Clear   69 67     93%     30.28 30.27      
Feb 23 08:56 Calm 2 Fog/Mist OVC004 70 68     93%     30.27        
Feb 23 08:53 Calm 1.5 Fog/Mist OVC007 70 68     93%     30.27 30.27      
Feb 23 07:53 Calm 1.75 Fog/Mist BKN005 OVC015 66 66     100%     30.27 30.27      
Feb 23 07:40 NNW 3 1.5 Fog/Mist SCT005 OVC015 65 65     100%     30.27        
Feb 23 07:23 NNW 3 0.5 Fog FEW005 BKN015 63 63     100%     30.26        
Feb 23 07:19 Calm 1.25 Fog/Mist BKN015 65 65     100%     30.26        
Feb 23 07:16 Calm 3 Fog/Mist BKN015 66 66     100%     30.26        
Feb 23 07:11 Calm 2.5 Fog/Mist BKN013 66 66     100%     30.26        
Feb 23 07:00 SE 5 0.5 Fog VV012 64 63     96%     30.25        
Feb 23 06:53 SE 3 4 Fog/Mist SCT011 64 64     100%     30.25 30.24      
Feb 23 06:44 SE 5 4 Fog/Mist CLR 65 64     97%     30.25        
Feb 23 05:53 SSW 6 5 Fog/Mist BKN005 OVC010 67 66     97%     30.24 30.24      
Feb 23 04:53 S 8 7 Mostly Cloudy BKN007 67 66     97%     30.22 30.22      
Feb 23 04:28 S 10 7 Mostly Cloudy BKN008 BKN017 67 66     97%     30.21        
Feb 23 04:21 S 8 7 Mostly Cloudy BKN010 BKN017 67 66     97%     30.21        
Feb 23 03:53 S 7 6 Fog/Mist CLR 65 65     100%     30.21 30.21      
Feb 23 02:53 S 8 6 Fog/Mist CLR 64 64     100%     30.22 30.21      
Feb 23 01:53 SSE 7 10 Clear CLR 59 58     96%     30.22 30.22      
Feb 23 00:53 Calm 10 Clear CLR 56 55     97%     30.24 30.23      
Feb 22 23:53 Calm 10 Clear CLR 57 56     96%     30.25 30.25      
Feb 22 22:53 Calm 10 Clear CLR 57 56     96%     30.25 30.25      
Feb 22 21:53 N 3 10 Clear CLR 57 55     93%     30.25 30.25      
Feb 22 20:53 ENE 3 10 Clear CLR 58 56     93%     30.24 30.23      
Feb 22 19:53 NE 3 10 Clear CLR 58 56     93%     30.23 30.22      
Feb 22 18:53 NNE 3 10 Mostly Cloudy BKN090 59 56     90%     30.21 30.21      
Feb 22 17:53 NE 6 10 Clear CLR 60 56     86%     30.2 30.19     0
Feb 22 16:53 NE 5 10 Clear CLR 63 57     81%     30.19 30.19      
Feb 22 15:53 ENE 7 10 Mostly Clear FEW100 61 56     83%     30.19 30.19      
Feb 22 14:53 NNE 6 10 Mostly Cloudy SCT009 BKN090 61 55     81%     30.22 30.21   0  
Feb 22 13:53 ENE 8 10 Mostly Cloudy BKN011 58 54     87%     30.24 30.24      
Feb 22 13:16 ENE 8 10 Cloudy SCT007 OVC014 56 53     90%     30.26        
Feb 22 12:53 NE 9 10 Cloudy BKN006 OVC016 56 54     93%     30.28 30.28 0    
Feb 22 12:00 NE 9 7 Light Rain OVC006 52 51     97%     30.31   0    
Feb 22 11:53 NE 9 4 Light Rain and Fog/Mist OVC003 52 51     97%     30.32 30.31 0   0
Feb 22 10:53 NE 10 10 Cloudy OVC006 52 51     97%     30.32 30.32 0    
Feb 22 10:22 NNW 6 6 Light Rain and Fog/Mist BKN005 OVC075 51 50     96%     30.33   0    
Feb 22 10:05 3 4 Rain and Fog/Mist BKN004 OVC080 51 50     96%     30.33   0    
Feb 22 09:53 E 8 6 Light Rain and Fog/Mist BKN004 BKN042 OVC080 50 50     100% 47   30.3 30.3 0    
Feb 22 09:48 ESE 9 7 Light Rain OVC004 50 50     100% 46   30.31   0    
Feb 22 09:25 NE 6 7 Rain and Fog/Mist OVC003 50 50     100% 48   30.31   0    
Feb 22 08:53 NNE 7 6 Light Rain and Fog/Mist OVC005 50 50     100% 47   30.32 30.31 0 0  
Jun 11 22:53 E 3 10 Clear   74 72     94%   75 30.02 30.01 0    
Jun 11 10:53 6 10 Partly Cloudy SCT050 83 70     65%   87 30.05 30.05      
Jun 11 01:53 S 3 10 Clear CLR 72 64     76%   72 30 29.99      
Jun 09 08:53 5 10 Clear CLR 73 61     66%   73 29.98 29.98      
Jun 09 04:53 Calm 10 Clear CLR 62 59     90%     29.93 29.93      
Jun 07 10:53 NE 17 10 Clear CLR 79 60     52%   79 29.93 29.92      
Jun 06 07:53 N 6 6 Light Rain and Fog/Mist OVC005 73 71     94%   74 29.77 29.76 0    
Jun 06 04:53 N 6 10 Light Rain OVC110 72 71     97%   73 29.74 29.73 0    
Notice The following observation data may not be complete
Jun 06 03:06   1 Heavy Rain and Fog/Mist FEW007 SCT017 OVC027          %         0    
Jun 06 01:53 N 5 10 Cloudy SCT019 BKN040 OVC090 74 71     91%   75 29.74 29.73      
Jun 05 14:11 5 10 Cloudy BKN020 OVC048 80 69     69%   83 29.75